EZY38KU EGHQ-EGCC

Flight info

Callsign EZY38KU
Flight time 0h 44m
Altitude 28000
Route EPACE DCT ACCOP DCT MOCQO/N0446F280 P16 AXCIS
Aircraft A320/M-SDE3FGHIRWY/LB1

Departure

Time 2026-04-26 20:11
Airport Cornwall Airport Newquay (EGHQ)

Arrival

Time 2026-04-26 20:56
Airport Manchester Airport (EGCC)
Time Latitude Longitude Altitude Speed Heading
2026-04-26 19:56 50.44653 -5.00381 327 ft 0 kts 74°
2026-04-26 20:01 50.44649 -5.00404 323 ft 4 kts 74°
2026-04-26 20:02 50.44643 -5.00442 324 ft 4 kts 79°
2026-04-26 20:02 50.44640 -5.00471 322 ft 4 kts 92°
2026-04-26 20:02 50.44644 -5.00503 322 ft 0 kts 121°
2026-04-26 20:04 50.44643 -5.00500 322 ft 2 kts 121°
2026-04-26 20:04 50.44625 -5.00453 322 ft 5 kts 121°
2026-04-26 20:05 50.44607 -5.00407 324 ft 7 kts 122°
2026-04-26 20:05 50.44571 -5.00313 327 ft 15 kts 118°
2026-04-26 20:05 50.44524 -5.00183 332 ft 14 kts 120°
2026-04-26 20:06 50.44487 -5.00084 332 ft 10 kts 120°
2026-04-26 20:06 50.44457 -5.00005 336 ft 8 kts 120°
2026-04-26 20:06 50.44421 -4.99910 337 ft 15 kts 120°
2026-04-26 20:06 50.44362 -4.99751 345 ft 16 kts 120°
2026-04-26 20:07 50.44307 -4.99605 352 ft 18 kts 120°
2026-04-26 20:07 50.44244 -4.99440 353 ft 17 kts 121°
2026-04-26 20:07 50.44189 -4.99296 362 ft 14 kts 121°
2026-04-26 20:07 50.44146 -4.99182 362 ft 12 kts 120°
2026-04-26 20:08 50.44095 -4.99043 362 ft 17 kts 120°
2026-04-26 20:08 50.44024 -4.98854 367 ft 23 kts 121°
2026-04-26 20:08 50.43938 -4.98627 372 ft 24 kts 120°
2026-04-26 20:08 50.43855 -4.98404 377 ft 23 kts 120°
2026-04-26 20:09 50.43774 -4.98193 382 ft 22 kts 120°
2026-04-26 20:09 50.43698 -4.97992 387 ft 20 kts 121°
2026-04-26 20:09 50.43600 -4.97866 392 ft 17 kts 160°
2026-04-26 20:09 50.43503 -4.97860 394 ft 11 kts 193°
2026-04-26 20:10 50.43467 -4.97914 396 ft 7 kts 283°
2026-04-26 20:10 50.43476 -4.97938 390 ft 0 kts 301°
2026-04-26 20:10 50.43492 -4.97981 392 ft 20 kts 301°
2026-04-26 20:10 50.43705 -4.98546 377 ft 97 kts 300°
2026-04-26 20:11 50.44151 -4.99724 353 ft 154 kts 302°
2026-04-26 20:11 50.44722 -5.01223 857 ft 161 kts 304°
2026-04-26 20:11 50.45316 -5.02749 1529 ft 167 kts 303°
2026-04-26 20:12 50.46787 -5.05923 2367 ft 198 kts 328°
2026-04-26 20:12 50.48008 -5.06555 2721 ft 206 kts
2026-04-26 20:12 50.49342 -5.05830 3293 ft 206 kts 41°
2026-04-26 20:12 50.50288 -5.04130 3880 ft 209 kts 54°
2026-04-26 20:13 50.51195 -5.02282 4320 ft 224 kts 53°
2026-04-26 20:13 50.52201 -5.00218 4678 ft 249 kts 53°
2026-04-26 20:13 50.53303 -4.97976 5232 ft 266 kts 52°
2026-04-26 20:13 50.54447 -4.95658 6077 ft 272 kts 52°
2026-04-26 20:14 50.55629 -4.93287 6900 ft 278 kts 52°
2026-04-26 20:14 50.56836 -4.90876 7706 ft 283 kts 52°
2026-04-26 20:14 50.58054 -4.88442 8496 ft 289 kts 52°
2026-04-26 20:14 50.59301 -4.85936 9325 ft 293 kts 52°
2026-04-26 20:15 50.60566 -4.83382 10143 ft 298 kts 53°
2026-04-26 20:15 50.61720 -4.81042 10540 ft 314 kts 53°
2026-04-26 20:15 50.62302 -4.79863 10652 ft 324 kts 53°
2026-04-26 20:15 50.63733 -4.76956 10890 ft 348 kts 53°
2026-04-26 20:16 50.65261 -4.73858 11234 ft 364 kts 52°
2026-04-26 20:16 50.66833 -4.70676 11851 ft 370 kts 52°
2026-04-26 20:16 50.68421 -4.67452 12573 ft 374 kts 52°
2026-04-26 20:16 50.70025 -4.64185 13282 ft 379 kts 52°
2026-04-26 20:17 50.71645 -4.60876 13977 ft 383 kts 52°
2026-04-26 20:17 50.73287 -4.57526 14595 ft 387 kts 52°
2026-04-26 20:17 50.74944 -4.54144 15194 ft 391 kts 52°
2026-04-26 20:17 50.76050 -4.51884 15590 ft 394 kts 52°
2026-04-26 20:18 50.78284 -4.47304 16370 ft 399 kts 52°
2026-04-26 20:18 50.79987 -4.43806 16963 ft 403 kts 52°
2026-04-26 20:18 50.81705 -4.40273 17540 ft 407 kts 52°
2026-04-26 20:18 50.83436 -4.36710 18104 ft 410 kts 52°
2026-04-26 20:19 50.85180 -4.33115 18644 ft 414 kts 52°
2026-04-26 20:19 50.86946 -4.29477 19117 ft 418 kts 52°
2026-04-26 20:19 50.88723 -4.25811 19592 ft 421 kts 52°
2026-04-26 20:19 50.90511 -4.22110 20051 ft 425 kts 52°
2026-04-26 20:20 50.92316 -4.18374 20501 ft 429 kts 52°
2026-04-26 20:20 50.94133 -4.14600 20944 ft 432 kts 53°
2026-04-26 20:20 50.95966 -4.10780 21391 ft 436 kts 53°
2026-04-26 20:20 50.97807 -4.06938 21849 ft 439 kts 53°
2026-04-26 20:21 50.99644 -4.03106 22270 ft 443 kts 53°
2026-04-26 20:21 51.01513 -3.99205 22705 ft 446 kts 53°
2026-04-26 20:21 51.03397 -3.95269 23139 ft 449 kts 53°
2026-04-26 20:21 51.05293 -3.91302 23556 ft 452 kts 53°
2026-04-26 20:22 51.07202 -3.87299 23946 ft 456 kts 53°
2026-04-26 20:22 51.09125 -3.83268 24289 ft 458 kts 53°
2026-04-26 20:22 51.11055 -3.79209 24634 ft 461 kts 53°
2026-04-26 20:22 51.12992 -3.75121 24935 ft 465 kts 54°
2026-04-26 20:23 51.14946 -3.70996 25262 ft 467 kts 53°
2026-04-26 20:23 51.16910 -3.66848 25585 ft 470 kts 54°
2026-04-26 20:23 51.18879 -3.62681 25936 ft 472 kts 54°
2026-04-26 20:23 51.21005 -3.58668 26251 ft 476 kts 45°
2026-04-26 20:24 51.23551 -3.55293 26575 ft 478 kts 35°
2026-04-26 20:24 51.26370 -3.52461 26897 ft 479 kts 25°
2026-04-26 20:24 51.29531 -3.50873 27207 ft 477 kts
2026-04-26 20:24 51.32833 -3.50310 27482 ft 478 kts
2026-04-26 20:25 51.36147 -3.49715 27768 ft 481 kts
2026-04-26 20:25 51.38354 -3.49278 27958 ft 483 kts
2026-04-26 20:25 51.42774 -3.48352 28240 ft 485 kts
2026-04-26 20:26 51.49450 -3.46935 28270 ft 483 kts
2026-04-26 20:26 51.56121 -3.45591 28280 ft 482 kts
2026-04-26 20:27 51.62786 -3.44287 28285 ft 482 kts
2026-04-26 20:27 51.69455 -3.42978 28283 ft 482 kts
2026-04-26 20:28 51.76118 -3.41649 28301 ft 482 kts
2026-04-26 20:28 51.82772 -3.40309 28303 ft 481 kts
2026-04-26 20:29 51.89416 -3.38959 28292 ft 480 kts
2026-04-26 20:29 51.96052 -3.37775 28296 ft 479 kts
2026-04-26 20:30 52.02653 -3.37288 28308 ft 477 kts 359°
2026-04-26 20:30 52.09293 -3.37040 28304 ft 477 kts 359°
2026-04-26 20:31 52.15924 -3.36667 28299 ft 477 kts 360°
2026-04-26 20:31 52.22553 -3.36151 28296 ft 477 kts
2026-04-26 20:32 52.29178 -3.35614 28316 ft 476 kts
2026-04-26 20:32 52.35740 -3.35132 28310 ft 474 kts 360°
2026-04-26 20:33 52.42340 -3.34662 28298 ft 474 kts 360°
2026-04-26 20:33 52.48948 -3.34184 27390 ft 477 kts
2026-04-26 20:33 52.52313 -3.33935 25818 ft 490 kts
2026-04-26 20:34 52.55736 -3.33677 24634 ft 494 kts
2026-04-26 20:34 52.59170 -3.33418 23504 ft 495 kts
2026-04-26 20:34 52.62554 -3.32852 22940 ft 479 kts
2026-04-26 20:34 52.65732 -3.31535 21733 ft 466 kts 18°
2026-04-26 20:35 52.68710 -3.29719 21037 ft 445 kts 19°
2026-04-26 20:35 52.71549 -3.27991 20433 ft 424 kts 18°
2026-04-26 20:35 52.74281 -3.26351 19928 ft 419 kts 18°
2026-04-26 20:35 52.77014 -3.24731 19481 ft 422 kts 18°
2026-04-26 20:36 52.79771 -3.23102 19003 ft 420 kts 18°
2026-04-26 20:36 52.82508 -3.21478 18545 ft 416 kts 19°
2026-04-26 20:36 52.85222 -3.19855 18045 ft 413 kts 19°
2026-04-26 20:36 52.87929 -3.18292 17590 ft 410 kts 15°
2026-04-26 20:37 52.90702 -3.17347 17139 ft 405 kts
2026-04-26 20:37 52.92560 -3.17130 16831 ft 403 kts
2026-04-26 20:37 52.95358 -3.16921 16399 ft 401 kts
2026-04-26 20:37 52.98130 -3.16709 15957 ft 396 kts
2026-04-26 20:38 53.00867 -3.16494 15528 ft 391 kts
2026-04-26 20:38 53.03577 -3.16278 15084 ft 389 kts
2026-04-26 20:38 53.06272 -3.16065 14661 ft 387 kts
2026-04-26 20:38 53.08953 -3.15855 14230 ft 385 kts
2026-04-26 20:39 53.11620 -3.15648 13773 ft 383 kts
2026-04-26 20:39 53.14285 -3.15437 13339 ft 382 kts
2026-04-26 20:39 53.16928 -3.15229 12916 ft 379 kts
2026-04-26 20:39 53.19552 -3.15020 12493 ft 377 kts
2026-04-26 20:40 53.22165 -3.14811 12148 ft 369 kts
2026-04-26 20:40 53.24673 -3.14607 12018 ft 353 kts
2026-04-26 20:40 53.27048 -3.14413 11891 ft 339 kts
2026-04-26 20:40 53.29360 -3.14224 11765 ft 326 kts
2026-04-26 20:41 53.31589 -3.14044 11638 ft 315 kts
2026-04-26 20:41 53.33740 -3.13872 11505 ft 304 kts
2026-04-26 20:41 53.35827 -3.13686 11299 ft 298 kts
2026-04-26 20:41 53.37822 -3.12850 11234 ft 297 kts 22°
2026-04-26 20:42 53.39589 -3.11060 11050 ft 299 kts 40°
2026-04-26 20:42 53.40951 -3.08454 10710 ft 298 kts 58°
2026-04-26 20:42 53.41984 -3.05459 10395 ft 296 kts 60°
2026-04-26 20:42 53.43008 -3.02473 10072 ft 295 kts 60°
2026-04-26 20:43 53.44037 -2.99496 9739 ft 293 kts 60°
2026-04-26 20:43 53.45059 -2.96544 9434 ft 292 kts 59°
2026-04-26 20:43 53.46079 -2.93602 9128 ft 291 kts 59°
2026-04-26 20:43 53.47094 -2.90670 8822 ft 290 kts 59°
2026-04-26 20:44 53.48092 -2.87789 8518 ft 288 kts 59°
2026-04-26 20:44 53.49098 -2.84882 8210 ft 287 kts 59°
2026-04-26 20:44 53.50094 -2.81990 7912 ft 286 kts 60°
2026-04-26 20:44 53.51086 -2.79101 7613 ft 285 kts 60°
2026-04-26 20:45 53.52063 -2.76256 7428 ft 275 kts 60°
2026-04-26 20:45 53.52987 -2.73506 7240 ft 266 kts 64°
2026-04-26 20:45 53.53488 -2.70467 6608 ft 275 kts 83°
2026-04-26 20:45 53.53702 -2.67262 6321 ft 277 kts 85°
2026-04-26 20:46 53.53887 -2.64038 6276 ft 278 kts 85°
2026-04-26 20:46 53.54070 -2.60795 6277 ft 278 kts 85°
2026-04-26 20:46 53.54252 -2.57554 6276 ft 279 kts 85°
2026-04-26 20:46 53.54430 -2.54301 6282 ft 279 kts 85°
2026-04-26 20:47 53.54606 -2.51091 6281 ft 279 kts 85°
2026-04-26 20:47 53.54723 -2.48935 6281 ft 279 kts 85°
2026-04-26 20:47 53.54961 -2.44578 6170 ft 279 kts 85°
2026-04-26 20:47 53.55138 -2.41331 6034 ft 278 kts 85°
2026-04-26 20:48 53.55315 -2.38089 5907 ft 278 kts 85°
2026-04-26 20:48 53.55490 -2.34910 5746 ft 277 kts 85°
2026-04-26 20:48 53.55667 -2.31689 5596 ft 275 kts 85°
2026-04-26 20:48 53.55843 -2.28485 5442 ft 275 kts 85°
2026-04-26 20:49 53.56008 -2.25291 5258 ft 273 kts 89°
2026-04-26 20:49 53.55707 -2.22194 5028 ft 269 kts 114°
2026-04-26 20:49 53.54876 -2.19376 4697 ft 266 kts 120°
2026-04-26 20:49 53.53994 -2.16687 4444 ft 259 kts 120°
2026-04-26 20:50 53.53129 -2.14075 4185 ft 252 kts 120°
2026-04-26 20:50 53.52286 -2.11530 3817 ft 245 kts 120°
2026-04-26 20:50 53.51472 -2.09071 3617 ft 238 kts 120°
2026-04-26 20:50 53.50686 -2.06694 3518 ft 229 kts 120°
2026-04-26 20:51 53.49928 -2.04400 3479 ft 217 kts 122°
2026-04-26 20:51 53.48914 -2.02694 3472 ft 203 kts 161°
2026-04-26 20:51 53.47600 -2.02660 3483 ft 189 kts 208°
2026-04-26 20:51 53.46664 -2.04104 3467 ft 184 kts 232°
2026-04-26 20:52 53.45848 -2.05755 3287 ft 184 kts 231°
2026-04-26 20:52 53.45041 -2.07404 3080 ft 182 kts 231°
2026-04-26 20:52 53.44248 -2.09049 2819 ft 181 kts 231°
2026-04-26 20:52 53.43462 -2.10685 2583 ft 180 kts 231°
2026-04-26 20:53 53.42681 -2.12312 2356 ft 179 kts 231°
2026-04-26 20:53 53.41902 -2.13935 2119 ft 178 kts 231°
2026-04-26 20:53 53.41150 -2.15499 1879 ft 167 kts 231°
2026-04-26 20:53 53.40457 -2.16943 1679 ft 150 kts 231°
2026-04-26 20:54 53.39828 -2.18250 1472 ft 140 kts 231°
2026-04-26 20:54 53.39222 -2.19509 1264 ft 138 kts 231°
2026-04-26 20:54 53.38620 -2.20754 1083 ft 137 kts 231°
2026-04-26 20:54 53.38024 -2.21997 911 ft 136 kts 231°
2026-04-26 20:55 53.37423 -2.23242 703 ft 137 kts 230°
2026-04-26 20:55 53.36821 -2.24486 522 ft 137 kts 229°
2026-04-26 20:55 53.36220 -2.25729 323 ft 137 kts 230°
2026-04-26 20:55 53.35668 -2.26889 263 ft 106 kts 231°
2026-04-26 20:56 53.35366 -2.27515 243 ft 47 kts 231°
2026-04-26 20:56 53.35260 -2.27870 236 ft 24 kts 253°
2026-04-26 20:56 53.35234 -2.28114 231 ft 16 kts 263°
2026-04-26 20:56 53.35271 -2.28211 232 ft 7 kts 13°
2026-04-26 20:57 53.35309 -2.28159 234 ft 12 kts 46°
2026-04-26 20:57 53.35372 -2.28054 236 ft 12 kts 44°
2026-04-26 20:57 53.35439 -2.27950 238 ft 18 kts 39°
2026-04-26 20:57 53.35550 -2.27908 237 ft 19 kts
2026-04-26 20:58 53.35677 -2.27886 243 ft 18 kts
2026-04-26 20:58 53.35791 -2.27866 250 ft 16 kts
2026-04-26 20:58 53.35908 -2.27848 255 ft 17 kts
2026-04-26 20:58 53.36014 -2.27932 255 ft 17 kts 317°
2026-04-26 20:59 53.36106 -2.28069 255 ft 18 kts 319°
2026-04-26 20:59 53.36187 -2.28205 255 ft 16 kts 313°
2026-04-26 20:59 53.36263 -2.28331 255 ft 15 kts 315°
2026-04-26 20:59 53.36326 -2.28439 255 ft 11 kts 318°
2026-04-26 21:00 53.36385 -2.28460 255 ft 8 kts 23°
2026-04-26 21:00 53.36425 -2.28394 255 ft 8 kts 44°
2026-04-26 21:00 53.36464 -2.28331 255 ft 7 kts 45°
2026-04-26 21:00 53.36504 -2.28265 255 ft 13 kts 44°
2026-04-26 21:01 53.36556 -2.28173 255 ft 10 kts 59°
2026-04-26 21:01 53.36537 -2.28080 255 ft 11 kts 134°
2026-04-26 21:01 53.36473 -2.27996 255 ft 12 kts 147°
2026-04-26 21:01 53.36423 -2.27918 255 ft 3 kts 134°
2026-04-26 21:02 53.36416 -2.27893 255 ft 2 kts 99°
2026-04-26 21:02 53.36421 -2.27875 255 ft 1 kts 65°
2026-04-26 21:02 53.36423 -2.27868 255 ft 0 kts 58°
2026-04-26 21:02 53.36424 -2.27868 255 ft 0 kts 57°
2026-04-26 21:03 53.36432 -2.27838 255 ft 6 kts 66°
2026-04-26 21:03 53.36444 -2.27795 255 ft 2 kts 53°
2026-04-26 21:04 53.36455 -2.27778 255 ft 2 kts 45°
2026-04-26 21:04 53.36464 -2.27762 255 ft 2 kts 45°
2026-04-26 21:04 53.36467 -2.27758 255 ft 0 kts 45°